Kirksville, MO

5:34 AM CDT on March 30, 2017 (GMT -0500)
Kirksville Regional

Weather History for KIRK - November, 2011

Change the Weather History Date:

Friday, November 18, 2011

  Actual Average Record
Temperature  
Mean Temperature 47 °F 39 °F  
Max Temperature 59 °F 49 °F 73 °F (1953)
Min Temperature 35 °F 30 °F 8 °F (2014)
Degree Days  
Heating Degree Days 18 26  
Month to date heating degree days 342 389  
Since 1 July heating degree days 816 878  
Cooling Degree Days 0 0  
Month to date cooling degree days 0 0  
Year to date cooling degree days 1197 939  
Moisture  
Dew Point 24 °F    
Average Humidity 47    
Maximum Humidity 64    
Minimum Humidity 29    
Precipitation  
Precipitation 0.00 in 0.07 in 1.10 in (1957)
Month to date precipitation 4.49 1.82  
Year to date precipitation 33.92 36.66  
Sea Level Pressure  
Sea Level Pressure 29.93 in    
Wind  
Wind Speed 16 mph (SSW)    
Max Wind Speed 29 mph    
Max Gust Speed 39 mph    
Visibility 10 miles    
Events      
T = Trace of Precipitation, MM = Missing Value Source: NWS Daily Summary

Daily Weather History Graph

Daily Weather History Graph

Search for Another Location

Airport or City:

Trip Planner

Search our weather history database for the weather conditions in past years. The results will help you decide how hot, cold, wet, or windy it might be!

Date:

Astronomy

Nov. 18, 2011 Rise Set
Actual Time 6:58 AM CST 4:51 PM CST
Civil Twilight 6:29 AM CST 5:20 PM CST
Nautical Twilight 5:56 AM CST 5:53 PM CST
Astronomical Twilight 5:24 AM CST 6:25 PM CST
Moon No Moon Rise 12:38 PM CST (11/18)
Length of Visible Light 10h 51m
Length of Day
9h 52m
Waning Gibbous, 49% of the Moon is Illuminated
Nov 18
Waning Gibbous
Nov 25
New
Dec 2
First Quarter
Dec 10
Full
Dec 17
Last Quarter

Hourly Weather History & Observations

Time (CST) Temp. Windchill Dew Point Humidity Pressure Visibility Wind Dir Wind Speed Gust Speed Precip Events Conditions
12:55 AM 36.0 °F 26.7 °F 24.1 °F 62% 30.12 in 10.0 mi South 15.0 mph 25.3 mph N/A   Clear
1:55 AM 35.6 °F 26.6 °F 23.0 °F 60% 30.08 in 10.0 mi South 13.8 mph 23.0 mph N/A   Clear
2:55 AM 35.6 °F 26.2 °F 21.2 °F 56% 30.07 in 10.0 mi South 15.0 mph 23.0 mph N/A   Clear
3:55 AM 37.0 °F 28.1 °F 21.0 °F 52% 30.08 in 10.0 mi South 15.0 mph - N/A   Clear
4:55 AM 37.9 °F 28.2 °F 21.9 °F 53% 30.06 in 10.0 mi South 18.4 mph 26.5 mph N/A   Clear
5:55 AM 37.9 °F 27.9 °F 21.9 °F 53% 30.04 in 10.0 mi SSW 19.6 mph 28.8 mph N/A   Clear
6:55 AM 39.0 °F 29.6 °F 21.0 °F 49% 30.04 in 10.0 mi SSW 18.4 mph 27.6 mph N/A   Clear
7:55 AM 39.9 °F 30.8 °F 19.9 °F 45% 30.03 in 10.0 mi SSW 18.4 mph 28.8 mph N/A   Clear
8:55 AM 42.1 °F 33.6 °F 19.9 °F 41% 30.02 in 10.0 mi South 18.4 mph 31.1 mph N/A   Clear
9:55 AM 45.0 °F 36.6 °F 21.0 °F 39% 30.00 in 10.0 mi SSW 21.9 mph 32.2 mph N/A   Clear
10:55 AM 50.0 °F - 21.0 °F 32% 29.98 in 10.0 mi SSW 19.6 mph 32.2 mph N/A   Clear
11:55 AM 53.1 °F - 23.0 °F 31% 29.92 in 10.0 mi SSW 25.3 mph 34.5 mph N/A   Clear
12:55 PM 57.0 °F - 27.0 °F 32% 29.87 in 10.0 mi SSW 18.4 mph 29.9 mph N/A   Clear
1:55 PM 59.0 °F - 30.0 °F 33% 29.83 in 10.0 mi SSW 18.4 mph 32.2 mph N/A   Clear
2:55 PM 57.9 °F - 30.0 °F 35% 29.82 in 10.0 mi SSW 19.6 mph 27.6 mph N/A   Clear
3:55 PM 57.9 °F - 27.0 °F 31% 29.81 in 10.0 mi SSW 23.0 mph 35.7 mph N/A   Clear
4:55 PM 53.6 °F - 26.6 °F 35% 29.79 in 10.0 mi South 13.8 mph - N/A   Clear
5:55 PM 52.0 °F - 25.0 °F 35% 29.82 in 10.0 mi South 10.4 mph - N/A   Clear
6:55 PM 48.9 °F - 24.1 °F 38% 29.82 in 10.0 mi South 9.2 mph - N/A   Clear
7:55 PM 48.2 °F - 23.0 °F 37% 29.80 in 10.0 mi South 10.4 mph - N/A   Clear
8:55 PM 48.0 °F - 23.0 °F 37% 29.83 in 10.0 mi SSW 13.8 mph - N/A   Clear
9:55 PM 48.0 °F - 23.0 °F 37% 29.85 in 10.0 mi SSW 10.4 mph 18.4 mph N/A   Clear
10:55 PM 48.0 °F - 23.0 °F 37% 29.86 in 10.0 mi South 9.2 mph - N/A   Clear
11:55 PM 46.9 °F - 24.1 °F 41% 29.85 in 10.0 mi South 11.5 mph - N/A   Clear